When you browse on this site, cookies collect data to enhance your experience and personalize the content and advertising you see.
Visit our Privacy Policy to learn more. By continuing to use the site, you agree to this use of cookies and data.
  • In Hungary
  • List of Countries
  • For 7 days
  • Water Temperature
  • Satellite Maps
  • Weather Map
  • News
  • Weather Widgets
  • user-avatar
    Login

    Hourly Weather Dlugokaty

    Today, 16 December, Sunday

    Time Temperature Precipitation Wind Pressure Humidity
    00:00 -4°C° 0.2 mm 5 mps 757 mmHg 85%
    01:00 -3°C° 0 mm 4 mps 756 mmHg 88%
    02:00 -3°C° 0.3 mm 4 mps 756 mmHg 88%
    03:00 -3°C° 0.3 mm 4 mps 755 mmHg 88%
    04:00 -4°C° 0.3 mm 5 mps 755 mmHg 88%
    05:00 -5°C° 0.2 mm 5 mps 754 mmHg 88%
    06:00 -4°C° 0.2 mm 4 mps 754 mmHg 88%
    07:00 -4°C° 0 mm 4 mps 753 mmHg 89%
    08:00 -5°C° 0.1 mm 5 mps 753 mmHg 88%
    09:00 -4°C° 0.1 mm 5 mps 753 mmHg 87%
    10:00 -4°C° 0.1 mm 5 mps 753 mmHg 86%
    11:00 -3°C° 0.1 mm 4 mps 753 mmHg 85%
    12:00 -3°C° 0.1 mm 4 mps 753 mmHg 85%
    13:00 -2°C° 0 mm 3 mps 752 mmHg 83%
    14:00 -2°C° 0 mm 3 mps 752 mmHg 84%
    15:00 -2°C° 0 mm 3 mps 752 mmHg 85%
    16:00 -2°C° 0 mm 3 mps 752 mmHg 85%
    17:00 -4°C° 0 mm 3 mps 752 mmHg 86%
    18:00 -3°C° 0 mm 2 mps 753 mmHg 87%
    19:00 -3°C° 0 mm 2 mps 753 mmHg 88%
    20:00 -4°C° 0 mm 2 mps 753 mmHg 88%
    21:00 -4°C° 0 mm 2 mps 753 mmHg 88%
    22:00 -4°C° 0 mm 2 mps 753 mmHg 89%
    23:00 -4°C° 0 mm 2 mps 753 mmHg 88%

    Tomorrow, 17 December, Monday

    Time Temperature Precipitation Wind Pressure Humidity
    00:00 -4°C° 0 mm 2 mps 753 mmHg 87%
    01:00 -4°C° 0 mm 2 mps 753 mmHg 87%
    02:00 -4°C° 0 mm 2 mps 753 mmHg 87%
    03:00 -4°C° 0 mm 2 mps 753 mmHg 87%
    04:00 -4°C° 0 mm 2 mps 753 mmHg 87%
    05:00 -4°C° 0 mm 2 mps 753 mmHg 88%
    06:00 -4°C° 0 mm 2 mps 753 mmHg 88%
    07:00 -4°C° 0 mm 2 mps 753 mmHg 88%
    08:00 -4°C° 0 mm 2 mps 754 mmHg 87%
    09:00 -3°C° 0 mm 2 mps 754 mmHg 86%
    10:00 -2°C° 0 mm 2 mps 754 mmHg 85%
    11:00 -2°C° 0 mm 2 mps 755 mmHg 83%
    12:00 0°C° 0 mm 1 mps 755 mmHg 82%
    13:00 +1°C° 0 mm 1 mps 755 mmHg 81%
    14:00 0°C° 0 mm 1 mps 755 mmHg 84%
    15:00 0°C° 0 mm 1 mps 755 mmHg 86%
    16:00 -1°C° 0 mm 1 mps 756 mmHg 88%
    17:00 -1°C° 0 mm 1 mps 756 mmHg 89%
    18:00 -1°C° 0 mm 1 mps 756 mmHg 90%
    19:00 -2°C° 0 mm 1 mps 757 mmHg 90%
    20:00 -2°C° 0 mm 1 mps 757 mmHg 90%
    21:00 -2°C° 0 mm 1 mps 757 mmHg 91%
    22:00 -2°C° 0 mm 1 mps 758 mmHg 91%
    23:00 -2°C° 0 mm 1 mps 758 mmHg 91%

    Day after tomorrow, 18 December, Tuesday

    Time Temperature Precipitation Wind Pressure Humidity
    00:00 -2°C° 0 mm 1 mps 758 mmHg 92%
    01:00 -3°C° 0 mm 1 mps 758 mmHg 92%
    02:00 -3°C° 0 mm 1 mps 759 mmHg 92%
    03:00 -3°C° 0 mm 1 mps 759 mmHg 92%
    04:00 -3°C° 0 mm 1 mps 759 mmHg 92%
    05:00 -3°C° 0 mm 1 mps 759 mmHg 92%
    06:00 -3°C° 0 mm 1 mps 759 mmHg 92%
    07:00 -3°C° 0 mm 1 mps 759 mmHg 92%
    08:00 -2°C° 0 mm 1 mps 759 mmHg 91%
    09:00 -2°C° 0 mm 1 mps 760 mmHg 90%
    10:00 -1°C° 0 mm 1 mps 760 mmHg 90%
    11:00 0°C° 0 mm 1 mps 760 mmHg 89%
    12:00 0°C° 0 mm 1 mps 759 mmHg 89%
    13:00 +1°C° 0 mm 1 mps 759 mmHg 88%
    14:00 0°C° 0 mm 1 mps 759 mmHg 90%
    15:00 0°C° 0 mm 1 mps 759 mmHg 91%
    16:00 -2°C° 0 mm 2 mps 759 mmHg 93%
    17:00 -2°C° 0 mm 2 mps 759 mmHg 93%
    18:00 -2°C° 0 mm 2 mps 759 mmHg 93%
    19:00 -2°C° 0 mm 2 mps 759 mmHg 94%
    20:00 -2°C° 0 mm 2 mps 759 mmHg 94%
    21:00 -2°C° 0 mm 2 mps 759 mmHg 94%
    22:00 -3°C° 0 mm 2 mps 759 mmHg 94%
    23:00 -3°C° 0 mm 2 mps 759 mmHg 94%

    19 December, Wednesday

    Time Temperature Precipitation Wind Pressure Humidity
    00:00 -3°C° 0 mm 2 mps 759 mmHg 94%
    01:00 -3°C° 0 mm 2 mps 759 mmHg 94%
    02:00 -4°C° 0 mm 3 mps 758 mmHg 94%
    03:00 -5°C° 0 mm 3 mps 758 mmHg 94%
    04:00 -5°C° 0 mm 3 mps 758 mmHg 93%
    05:00 -5°C° 0 mm 3 mps 758 mmHg 93%
    06:00 -5°C° 0 mm 3 mps 758 mmHg 93%
    07:00 -6°C° 0 mm 3 mps 758 mmHg 92%
    08:00 -5°C° 0 mm 4 mps 758 mmHg 90%
    09:00 -5°C° 0 mm 4 mps 758 mmHg 88%
    10:00 -5°C° 0 mm 5 mps 758 mmHg 86%
    11:00 -5°C° 0 mm 5 mps 758 mmHg 85%
    12:00 -5°C° 0 mm 5 mps 757 mmHg 84%
    13:00 -4°C° 0 mm 5 mps 757 mmHg 83%
    14:00 -5°C° 0 mm 5 mps 757 mmHg 85%
    15:00 -5°C° 0 mm 5 mps 757 mmHg 87%
    16:00 -5°C° 0 mm 4 mps 757 mmHg 89%
    17:00 -6°C° 0 mm 5 mps 756 mmHg 89%
    18:00 -6°C° 0 mm 5 mps 756 mmHg 89%
    19:00 -6°C° 0 mm 5 mps 756 mmHg 90%
    20:00 -7°C° 0 mm 5 mps 756 mmHg 90%
    21:00 -7°C° 0 mm 5 mps 756 mmHg 90%
    22:00 -7°C° 0 mm 5 mps 756 mmHg 90%
    23:00 -7°C° 0 mm 5 mps 756 mmHg 90%

    20 December, Thursday

    Time Temperature Precipitation Wind Pressure Humidity
    00:00 -7°C° 0 mm 5 mps 756 mmHg 90%
    01:00 -7°C° 0 mm 5 mps 756 mmHg 90%
    02:00 -7°C° 0 mm 5 mps 756 mmHg 90%
    03:00 -7°C° 0 mm 5 mps 755 mmHg 90%
    04:00 -7°C° 0 mm 5 mps 755 mmHg 89%
    05:00 -7°C° 0 mm 5 mps 755 mmHg 89%
    06:00 -7°C° 0 mm 5 mps 755 mmHg 89%
    07:00 -7°C° 0 mm 4 mps 755 mmHg 89%
    08:00 -7°C° 0 mm 4 mps 755 mmHg 87%
    09:00 -5°C° 0 mm 4 mps 755 mmHg 86%
    10:00 -5°C° 0 mm 4 mps 755 mmHg 84%
    11:00 -4°C° 0 mm 4 mps 754 mmHg 84%
    12:00 -4°C° 0 mm 4 mps 754 mmHg 83%
    13:00 -2°C° 0 mm 3 mps 754 mmHg 82%
    14:00 -4°C° 0 mm 3 mps 754 mmHg 83%
    15:00 -4°C° 0 mm 3 mps 754 mmHg 85%
    16:00 -4°C° 0 mm 3 mps 754 mmHg 87%
    17:00 -4°C° 0 mm 3 mps 754 mmHg 88%
    18:00 -4°C° 0 mm 3 mps 754 mmHg 89%
    19:00 -4°C° 0 mm 3 mps 753 mmHg 90%
    20:00 -4°C° 0 mm 3 mps 753 mmHg 90%
    21:00 -4°C° 0 mm 3 mps 753 mmHg 90%
    22:00 -4°C° 0 mm 3 mps 753 mmHg 90%
    23:00 -4°C° 0 mm 3 mps 753 mmHg 91%

    21 December, Friday

    Time Temperature Precipitation Wind Pressure Humidity
    00:00 -4°C° 0 mm 3 mps 753 mmHg 91%
    01:00 -4°C° 0 mm 3 mps 753 mmHg 91%
    02:00 -4°C° 0 mm 3 mps 753 mmHg 92%
    03:00 -3°C° 0 mm 2 mps 752 mmHg 93%
    04:00 -3°C° 0 mm 2 mps 752 mmHg 93%
    05:00 -2°C° 0.1 mm 2 mps 752 mmHg 94%
    06:00 -2°C° 0.1 mm 2 mps 752 mmHg 94%
    07:00 -2°C° 0.1 mm 2 mps 752 mmHg 95%
    08:00 -2°C° 0.2 mm 2 mps 752 mmHg 95%
    09:00 -2°C° 0.2 mm 2 mps 752 mmHg 95%
    10:00 -2°C° 0.2 mm 2 mps 752 mmHg 95%
    11:00 -1°C° 0.3 mm 2 mps 752 mmHg 95%
    12:00 -1°C° 0.3 mm 2 mps 752 mmHg 95%
    13:00 -1°C° 0.3 mm 2 mps 751 mmHg 95%
    14:00 +1°C° 0.1 mm 1 mps 751 mmHg 96%
    15:00 +1°C° 0.1 mm 1 mps 751 mmHg 96%
    16:00 +1°C° 0.1 mm 1 mps 751 mmHg 96%
    17:00 +1°C° 0 mm 1 mps 751 mmHg 96%
    18:00 +1°C° 0 mm 1 mps 751 mmHg 96%
    19:00 +1°C° 0 mm 1 mps 751 mmHg 96%
    20:00 +1°C° 0 mm 1 mps 751 mmHg 96%
    21:00 +1°C° 0 mm 1 mps 751 mmHg 96%
    22:00 +1°C° 0 mm 1 mps 751 mmHg 96%
    23:00 -1°C° 0 mm 2 mps 750 mmHg 95%
    Show more